Flag for USA

Past Weather in Woodinville, Washington, USA — Yesterday and Last 2 Weeks

Now
60 °F

Fog.


Feels Like: 60 °F
Forecast: 67 / 60 °F
Wind: 5 mph from North

Location: Snohomish County Airport
Current Time: Sep 19, 2020 at 1:00:31 pm
Latest Report: Sep 19, 2020 at 11:53 am
Visibility: 1 mi
Pressure30.06 "Hg
Humidity: 93%
Dew Point: 58 °F
Location of WoodinvilleLocation

Past Weather in Woodinville — Graph

°F

Woodinville Temperature Yesterday

Maximum temperature yesterday: 65 °F (at 10:03 am)
Minimum temperature yesterday: 58 °F (at 3:53 am)
Average temperature yesterday: 61 °F

High & Low Weather Summary for the Past Weeks

 TemperatureHumidityPressure
High84 °F (Sep 10, 3:53 pm)100% (Sep 6, 6:22 am)30.34 "Hg (Sep 6, 6:22 am)
Low51 °F (Sep 12, 10:53 pm)19% (Sep 8, 4:53 am)29.89 "Hg (Sep 13, 4:53 pm)
Average63 °F75%30.05 "Hg
* Reported Sep 4 11:53 am — Sep 19 11:53 am, Woodinville. Weather by CustomWeather, © 2020

Note: Actual official high and low records may vary slightly from our data, if they occured in-between our weather recording intervals... More about our weather records

Woodinville Weather History for the Previous 24 Hours

Scroll right to see more
 ConditionsComfort  
Time TempWeatherWind HumidityBarometerVisibility
11:53 am
Sat, Sep 19
60 °FFog.5 mph93%30.06 "Hg1 mi
10:53 am60 °FFog.5 mph93%30.05 "Hg1 mi
9:53 am59 °FMostly cloudy.6 mph93%30.04 "Hg8 mi
9:21 am58 °FMostly cloudy.5 mph93%30.03 "Hg7 mi
8:53 am58 °FOvercast.3 mph93%30.03 "Hg8 mi
7:53 am58 °FOvercast.5 mph93%30.01 "Hg8 mi
6:53 am59 °FOvercast.No wind90%30.00 "Hg10 mi
6:08 am58 °FOvercast.No wind93%30.00 "Hg8 mi
5:53 am57 °FFog.No wind96%29.99 "Hg3 mi
4:53 am58 °FOvercast.No wind90%29.98 "Hg8 mi
3:53 am58 °FOvercast.No wind93%29.98 "Hg9 mi
3:31 am58 °FOvercast.No wind93%29.98 "Hg7 mi
2:53 am57 °FFog.No wind96%29.98 "Hg4 mi
1:53 am58 °FOvercast.3 mph93%29.97 "Hg8 mi
1:42 am58 °FOvercast.5 mph97%29.97 "Hg8 mi
1:28 am58 °FMostly cloudy.6 mph97%29.97 "Hg7 mi
12:53 am58 °FFog.6 mph97%29.96 "Hg5 mi
12:08 am58 °FLight rain. Fog.9 mph97%29.97 "Hg3 mi
11:53 pm
Fri, Sep 18
58 °FLight rain. Fog.5 mph97%29.96 "Hg3 mi
11:32 pm58 °FFog.3 mph100%29.97 "Hg1 mi
11:12 pm61 °FFog.5 mph93%29.96 "Hg2 mi
10:53 pm62 °FMostly cloudy.3 mph90%29.96 "Hg7 mi
10:21 pm62 °FMostly cloudy.6 mph86%29.95 "Hg7 mi
9:53 pm62 °FMostly cloudy.6 mph86%29.95 "Hg7 mi
8:53 pm61 °FOvercast.3 mph90%29.95 "Hg7 mi
7:53 pm61 °FMostly cloudy.6 mph90%29.93 "Hg7 mi
7:00 pm62 °FLight rain. Fog.3 mph90%29.93 "Hg6 mi
5:53 pm62 °FLight rain. Fog.6 mph93%29.92 "Hg4 mi
4:53 pm62 °FRain. Fog.7 mph96%29.92 "Hg2 mi
4:18 pm63 °FRain. Fog.9 mph93%29.93 "Hg1 mi
3:53 pm63 °FLight rain. Fog.3 mph90%29.92 "Hg2 mi
3:29 pm62 °FLight rain. Fog.No wind93%29.93 "Hg2 mi
3:02 pm63 °FFog.6 mph87%29.93 "Hg2 mi
2:35 pm62 °FFog.6 mph90%29.92 "Hg2 mi
2:10 pm62 °FFog.7 mph90%29.92 "Hg2 mi
1:53 pm62 °FFog.5 mph90%29.92 "Hg1 mi
Weather by CustomWeather, © 2020

See weather overview